| time (UTC) | temp F | wind direction | speed MPH | gust MPH | rain 1hr in | rain 24hr in | rain mn in | humidity % | barometer mb |
| 20260507103021 | 33 | 355 | 0.0 | 0.0 | 0.00 | 0.00 | 0.00 | 4 | 1012.5 |
| 20260507101518 | 34 | 355 | 0.0 | 0.0 | 0.00 | 0.00 | 0.00 | 7 | 1012.5 |
| 20260507100021 | 34 | 355 | 0.0 | 0.0 | 0.00 | 0.00 | 0.00 | 8 | 1012.5 |
| 20260507094508 | 34 | 355 | 0.0 | 0.0 | 0.00 | 0.00 | 0.00 | 11 | 1012.5 |
| 20260507093004 | 34 | 355 | 0.0 | 0.0 | 0.00 | 0.00 | 0.00 | 12 | 1012.5 |
| 20260507091600 | 34 | 355 | 0.0 | 0.0 | 0.00 | 0.00 | 0.00 | 14 | 1012.5 |
| 20260507090103 | 34 | 355 | 0.0 | 0.0 | 0.00 | 0.00 | 0.00 | 16 | 1012.6 |
| 20260507084552 | 35 | 355 | 0.0 | 0.0 | 0.00 | 0.00 | 0.00 | 19 | 1012.6 |
| 20260507083048 | 35 | 355 | 0.0 | 0.0 | 0.00 | 0.00 | 0.00 | 24 | 1012.6 |
| 20260507081547 | 35 | 355 | 0.0 | 0.0 | 0.00 | 0.00 | 0.00 | 25 | 1012.5 |
| 20260507080044 | 36 | 355 | 0.0 | 0.0 | 0.00 | 0.00 | 0.00 | 27 | 1012.6 |
| 20260507074549 | 36 | 355 | 0.0 | 0.0 | 0.00 | 0.00 | 0.00 | 31 | 1012.6 |
| 20260507073044 | 36 | 355 | 0.0 | 0.0 | 0.00 | 0.00 | 0.00 | 35 | 1012.6 |
| 20260507071540 | 37 | 355 | 0.0 | 0.0 | 0.00 | 0.00 | 0.00 | 37 | 1012.7 |
| 20260507070039 | 37 | 355 | 0.0 | 0.0 | 0.00 | 0.00 | 0.00 | 39 | 1012.8 |
| 20260507064535 | 37 | 355 | 0.0 | 0.0 | 0.00 | 0.00 | 0.00 | 42 | 1012.8 |
| 20260507063048 | 37 | 355 | 0.0 | 0.0 | 0.00 | 0.00 | 0.00 | 44 | 1012.8 |
| 20260507061534 | 38 | 355 | 0.0 | 0.0 | 0.00 | 0.00 | 0.00 | 46 | 1012.9 |
| 20260507060042 | 38 | 355 | 0.0 | 0.0 | 0.00 | 0.00 | 0.00 | 47 | 1012.9 |
| 20260507054527 | 39 | 355 | 0.0 | 0.0 | 0.00 | 0.00 | 0.00 | 49 | 1013.0 |
| 20260507053025 | 39 | 355 | 0.0 | 0.0 | 0.00 | 0.00 | 0.00 | 50 | 1012.9 |
| 20260507051524 | 40 | 355 | 0.0 | 0.0 | 0.00 | 0.00 | 0.00 | 52 | 1013.0 |
| 20260507050020 | 40 | 355 | 0.0 | 0.0 | 0.00 | 0.00 | 0.00 | 53 | 1012.9 |
| 20260507044518 | 41 | 355 | 0.0 | 0.0 | 0.00 | 0.00 | 0.00 | 54 | 1012.9 |
| 20260507043011 | 42 | 355 | 0.0 | 0.0 | 0.00 | 0.00 | 0.00 | 55 | 1012.9 |
| 20260507041507 | 42 | 355 | 0.0 | 0.0 | 0.00 | 0.00 | 0.00 | 55 | 1012.8 |
| 20260507040002 | 43 | 355 | 0.0 | 0.0 | 0.00 | 0.00 | 0.00 | 55 | 1012.9 |
| 20260507034609 | 43 | 355 | 0.0 | 0.0 | 0.00 | 0.00 | 0.00 | 55 | 1012.8 |
| 20260507033101 | 44 | 355 | 0.0 | 0.0 | 0.00 | 0.00 | 0.00 | 54 | 1012.8 |
| 20260507031552 | 45 | 355 | 0.0 | 0.0 | 0.00 | 0.00 | 0.00 | 52 | 1013.0 |
| 20260507030046 | 45 | 355 | 0.0 | 0.0 | 0.00 | 0.00 | 0.00 | 50 | 1012.8 |
| 20260507024541 | 46 | 355 | 0.0 | 0.0 | 0.00 | 0.00 | 0.00 | 50 | 1012.8 |
| 20260507023036 | 46 | 355 | 0.0 | 0.0 | 0.00 | 0.00 | 0.00 | 48 | 1012.6 |
| 20260507021532 | 47 | 5 | 0.0 | 0.0 | 0.00 | 0.00 | 0.00 | 47 | 1012.3 |
| 20260507020039 | 47 | 5 | 0.0 | 0.0 | 0.00 | 0.00 | 0.00 | 46 | 1012.1 |
| 20260507014523 | 48 | 348 | 0.0 | 0.0 | 0.00 | 0.00 | 0.00 | 44 | 1012.1 |
| 20260507013038 | 48 | 360 | 1.0 | 0.0 | 0.00 | 0.00 | 0.00 | 44 | 1012.0 |
| 20260507011515 | 49 | 355 | 1.0 | 0.0 | 0.00 | 0.00 | 0.00 | 43 | 1012.0 |
| 20260507010010 | 49 | 320 | 2.0 | 0.0 | 0.00 | 0.00 | 0.00 | 42 | 1011.9 |
| 20260507004506 | 50 | 348 | 2.0 | 0.0 | 0.00 | 0.00 | 0.00 | 41 | 1011.9 |
| 20260507003001 | 51 | 319 | 2.0 | 0.0 | 0.00 | 0.00 | 0.00 | 41 | 1011.9 |
| 20260507001558 | 52 | 331 | 2.0 | 0.0 | 0.00 | 0.00 | 0.00 | 40 | 1011.7 |
| 20260507000054 | 52 | 351 | 2.0 | 0.0 | 0.00 | 0.00 | 0.00 | 41 | 1011.4 |
| 20260506234549 | 52 | 344 | 2.0 | 0.0 | 0.00 | 0.00 | 0.00 | 40 | 1011.3 |
| 20260506233057 | 53 | 360 | 2.0 | 0.0 | 0.00 | 0.00 | 0.00 | 40 | 1011.1 |
| 20260506231541 | 54 | 346 | 2.0 | 0.0 | 0.00 | 0.00 | 0.00 | 39 | 1011.1 |
| 20260506230035 | 54 | 23 | 1.0 | 0.0 | 0.00 | 0.00 | 0.00 | 40 | 1010.8 |
| 20260506224531 | 54 | 330 | 2.0 | 0.0 | 0.00 | 0.00 | 0.00 | 39 | 1010.8 |
| 20260506223026 | 54 | 316 | 2.0 | 0.0 | 0.00 | 0.00 | 0.00 | 39 | 1010.7 |
| 20260506221522 | 55 | 314 | 2.0 | 0.0 | 0.00 | 0.00 | 0.00 | 38 | 1010.7 |
| 20260506220024 | 55 | 342 | 2.0 | 0.0 | 0.00 | 0.00 | 0.00 | 39 | 1010.5 |
| 20260506214513 | 55 | 328 | 2.0 | 0.0 | 0.00 | 0.00 | 0.00 | 38 | 1010.4 |
| 20260506213009 | 56 | 314 | 2.0 | 0.0 | 0.00 | 0.00 | 0.00 | 39 | 1010.3 |
| 20260506211508 | 57 | 324 | 2.0 | 0.0 | 0.00 | 0.00 | 0.00 | 36 | 1010.2 |
| 20260506210100 | 57 | 340 | 1.0 | 0.0 | 0.00 | 0.00 | 0.00 | 37 | 1010.2 |
| 20260506204557 | 58 | 355 | 2.0 | 0.0 | 0.00 | 0.00 | 0.00 | 35 | 1010.3 |
| 20260506203052 | 60 | 322 | 3.0 | 0.0 | 0.00 | 0.00 | 0.00 | 31 | 1010.3 |
| 20260506201548 | 61 | 313 | 2.0 | 0.0 | 0.00 | 0.00 | 0.00 | 31 | 1010.4 |
| 20260506200046 | 60 | 330 | 2.0 | 0.0 | 0.00 | 0.00 | 0.00 | 31 | 1010.6 |
| 20260506194545 | 59 | 274 | 2.0 | 0.0 | 0.00 | 0.00 | 0.00 | 33 | 1010.6 |
| 20260506193034 | 58 | 265 | 2.0 | 0.0 | 0.00 | 0.00 | 0.00 | 35 | 1010.8 |
| 20260506191531 | 56 | 232 | 1.0 | 0.0 | 0.00 | 0.00 | 0.00 | 37 | 1010.9 |
| 20260506190026 | 56 | 338 | 1.0 | 0.0 | 0.00 | 0.00 | 0.00 | 37 | 1010.8 |
| 20260506184521 | 56 | 342 | 1.0 | 0.0 | 0.00 | 0.00 | 0.00 | 38 | 1010.9 |
| 20260506183016 | 56 | 334 | 1.0 | 0.0 | 0.00 | 0.00 | 0.00 | 37 | 1010.8 |
| 20260506181517 | 55 | 334 | 2.0 | 0.0 | 0.00 | 0.00 | 0.00 | 37 | 1010.9 |
| 20260506180016 | 56 | 15 | 2.0 | 0.0 | 0.00 | 0.00 | 0.00 | 37 | 1010.9 |
| 20260506174503 | 55 | 342 | 2.0 | 0.0 | 0.00 | 0.00 | 0.00 | 39 | 1010.9 |
| 20260506173112 | 55 | 334 | 1.0 | 0.0 | 0.00 | 0.00 | 0.00 | 38 | 1011.1 |
| 20260506171603 | 55 | 338 | 1.0 | 0.0 | 0.00 | 0.00 | 0.00 | 38 | 1011.1 |
| 20260506170059 | 55 | 360 | 1.0 | 0.0 | 0.00 | 0.00 | 0.00 | 37 | 1011.2 |
| 20260506164605 | 56 | 319 | 1.0 | 0.0 | 0.00 | 0.00 | 0.00 | 37 | 1011.2 |
| 20260506163044 | 56 | 312 | 1.0 | 0.0 | 0.00 | 0.00 | 0.00 | 36 | 1011.0 |
| 20260506161538 | 56 | 328 | 1.0 | 0.0 | 0.00 | 0.00 | 0.00 | 37 | 1011.2 |
| 20260506160034 | 55 | 329 | 2.0 | 0.0 | 0.00 | 0.00 | 0.00 | 39 | 1011.2 |
| 20260506154529 | 54 | 355 | 1.0 | 0.0 | 0.00 | 0.00 | 0.00 | 39 | 1011.1 |
| 20260506153024 | 53 | 334 | 1.0 | 0.0 | 0.00 | 0.00 | 0.00 | 38 | 1011.1 |
| 20260506151521 | 53 | 263 | 1.0 | 0.0 | 0.00 | 0.00 | 0.00 | 39 | 1011.3 |
| 20260506150017 | 53 | 342 | 1.0 | 0.0 | 0.00 | 0.00 | 0.00 | 39 | 1011.3 |
| 20260506144511 | 52 | 329 | 1.0 | 0.0 | 0.00 | 0.00 | 0.00 | 41 | 1011.3 |
| 20260506143007 | 52 | 313 | 1.0 | 0.0 | 0.00 | 0.00 | 0.00 | 40 | 1011.3 |
| 20260506141503 | 50 | 317 | 0.0 | 0.0 | 0.00 | 0.00 | 0.00 | 43 | 1011.3 |
| 20260506140059 | 49 | 65 | 0.0 | 0.0 | 0.00 | 0.00 | 0.00 | 42 | 1011.2 |
| 20260506134554 | 48 | 76 | 0.0 | 0.0 | 0.00 | 0.00 | 0.00 | 42 | 1011.0 |
| 20260506133053 | 47 | 76 | 0.0 | 0.0 | 0.00 | 0.00 | 0.00 | 41 | 1010.7 |
| 20260506131545 | 46 | 76 | 0.0 | 0.0 | 0.00 | 0.00 | 0.00 | 38 | 1010.6 |
| 20260506130042 | 44 | 76 | 0.0 | 0.0 | 0.00 | 0.00 | 0.00 | 29 | 1010.6 |
| 20260506124540 | 43 | 76 | 0.0 | 0.0 | 0.00 | 0.00 | 0.00 | 20 | 1010.4 |
| 20260506123040 | 42 | 76 | 0.0 | 0.0 | 0.00 | 0.00 | 0.00 | 100 | 1010.2 |
| 20260506121528 | 41 | 76 | 0.0 | 0.0 | 0.00 | 0.00 | 0.00 | 100 | 1010.0 |
| 20260506120035 | 40 | 76 | 0.0 | 0.0 | 0.00 | 0.00 | 0.00 | 7 | 1009.9 |
| 20260506114524 | 40 | 76 | 0.0 | 0.0 | 0.00 | 0.00 | 0.00 | 17 | 1009.8 |
| 20260506113016 | 40 | 76 | 0.0 | 0.0 | 0.00 | 0.00 | 0.00 | 25 | 1009.6 |
| 20260506111513 | 40 | 76 | 0.0 | 0.0 | 0.00 | 0.00 | 0.00 | 30 | 1009.6 |
| 20260506110010 | 40 | 76 | 0.0 | 0.0 | 0.00 | 0.00 | 0.00 | 36 | 1009.6 |
| 20260506104506 | 41 | 76 | 0.0 | 0.0 | 0.00 | 0.00 | 0.00 | 41 | 1009.3 |